STARLINK-35112

Last updated on Tue Oct 07 2025 00:02:05 GMT+0000 (Coordinated Universal Time)

1 65520U 25200A 25279.50003471 -.01508457 00000+0 -37462-1 0 9996 2 65520 97.6031 346.1962 0001361 77.2856 347.9746 15.43350766 5817

Satellite not in orbit

STARLINK-35112